A65GJ Weather Reports


Display with metric or nautical units.
time (UTC)temp
F
wind
direction
speed
MPH
gust
MPH
rain 1hr
in
rain 24hr
in
rain mn
in
humidity
%
barometer
mb
20200531164606 95 0 1.0 0.0 0.00 0.00 0.00 41 1004.0
20200531161601 95 320 4.0 0.0 0.00 0.00 0.00 41 1003.0
20200531154603 95 320 4.0 0.0 0.00 0.00 0.00 41 1003.0
20200531151603 96 290 12.0 0.0 0.00 0.00 0.00 41 1003.0
20200531144603 96 290 12.0 0.0 0.00 0.00 0.00 41 1003.0
20200531141607 96 290 16.0 0.0 0.00 0.00 0.00 47 1003.0
20200531134607 96 290 16.0 0.0 0.00 0.00 0.00 47 1003.0
20200531131602 98 270 20.0 0.0 0.00 0.00 0.00 42 1003.0
20200531124602 98 270 20.0 0.0 0.00 0.00 0.00 42 1003.0
20200531121602 99 270 21.0 0.0 0.00 0.00 0.00 37 1004.0
20200531114607 99 270 21.0 0.0 0.00 0.00 0.00 37 1004.0
20200531111607 101 270 18.0 0.0 0.00 0.00 0.00 37 1004.0
20200531104602 101 270 18.0 0.0 0.00 0.00 0.00 37 1004.0
20200531101602 103 260 13.0 0.0 0.00 0.00 0.00 35 1004.0
20200531094602 103 260 13.0 0.0 0.00 0.00 0.00 35 1004.0
20200531091602 104 200 14.0 0.0 0.00 0.00 0.00 31 1005.0
20200531084602 104 200 14.0 0.0 0.00 0.00 0.00 31 1005.0
20200531074602 102 220 17.0 0.0 0.00 0.00 0.00 31 1005.0
20200531071602 99 210 16.0 0.0 0.00 0.00 0.00 37 1006.0
20200531064602 98 210 16.0 0.0 0.00 0.00 0.00 37 1006.0
20200531061608 96 200 14.0 0.0 0.00 0.00 0.00 39 1006.0
20200531054603 96 200 14.0 0.0 0.00 0.00 0.00 39 1006.0
20200531051602 94 200 16.0 0.0 0.00 0.00 0.00 41 1005.0
20200531044602 93 200 16.0 0.0 0.00 0.00 0.00 41 1005.0
20200531041604 92 170 11.0 0.0 0.00 0.00 0.00 44 1005.0
20200531034610 92 170 11.0 0.0 0.00 0.00 0.00 44 1005.0
20200531031602 91 190 9.0 0.0 0.00 0.00 0.00 43 1004.0
20200531024602 91 190 9.0 0.0 0.00 0.00 0.00 43 1004.0
20200531021602 92 200 14.0 0.0 0.00 0.00 0.00 38 1004.0
20200531014602 93 200 14.0 0.0 0.00 0.00 0.00 38 1004.0
20200531011607 94 180 9.0 0.0 0.00 0.00 0.00 28 1004.0
20200531004603 93 180 9.0 0.0 0.00 0.00 0.00 28 1004.0
20200531001602 92 160 5.0 0.0 0.00 0.00 0.00 49 1004.0
20200530234601 92 160 5.0 0.0 0.00 0.00 0.00 49 1004.0
20200530231602 92 100 3.0 0.0 0.00 0.00 0.00 49 1004.0
20200530224602 92 100 3.0 0.0 0.00 0.00 0.00 49 1004.0
20200530221602 92 270 3.0 0.0 0.00 0.00 0.00 49 1004.0
20200530214603 92 270 3.0 0.0 0.00 0.00 0.00 49 1004.0
20200530211603 93 0 1.0 0.0 0.00 0.00 0.00 46 1004.0
20200530204607 93 0 1.0 0.0 0.00 0.00 0.00 46 1004.0
20200530201602 94 40 3.0 0.0 0.00 0.00 0.00 44 1004.0
20200530194602 95 40 3.0 0.0 0.00 0.00 0.00 44 1004.0
20200530191602 96 60 1.0 0.0 0.00 0.00 0.00 44 1004.0
20200530184604 96 60 1.0 0.0 0.00 0.00 0.00 44 1004.0
20200530181603 97 100 1.0 0.0 0.00 0.00 0.00 41 1003.0
20200530174602 96 100 1.0 0.0 0.00 0.00 0.00 41 1003.0
20200530171603 96 20 2.0 0.0 0.00 0.00 0.00 44 1003.0